| time (UTC) | temp C | wind direction | speed KPH | gust KPH | rain 1hr cm | rain 24hr cm | rain mn cm | humidity % | barometer mb |
| 20260902104039 | 16 | 98 | 0.0 | 0.0 | 0.00 | 0.03 | 0.03 | 99 | 1017.7 |
| 20260902103534 | 16 | 82 | 1.6 | 1.6 | 0.00 | 0.03 | 0.03 | 99 | 1017.6 |
| 20260902103030 | 16 | 93 | 1.6 | 1.6 | 0.00 | 0.03 | 0.03 | 99 | 1017.8 |
| 20260902102526 | 16 | 90 | 0.0 | 0.0 | 0.00 | 0.03 | 0.03 | 99 | 1017.7 |
| 20260902102023 | 16 | 90 | 0.0 | 0.0 | 0.00 | 0.03 | 0.03 | 99 | 1017.9 |
| 20260902101518 | 16 | 97 | 1.6 | 3.2 | 0.00 | 0.03 | 0.03 | 99 | 1017.8 |
| 20260902101016 | 16 | 113 | 0.0 | 0.0 | 0.00 | 0.03 | 0.03 | 99 | 1017.6 |
| 20260902100511 | 16 | 64 | 0.0 | 0.0 | 0.00 | 0.03 | 0.03 | 99 | 1017.6 |
| 20260902100006 | 16 | 105 | 1.6 | 1.6 | 0.00 | 0.03 | 0.03 | 99 | 1017.5 |
| 20260902095500 | 16 | 165 | 1.6 | 1.6 | 0.00 | 0.03 | 0.03 | 99 | 1017.5 |
| 20260902094959 | 16 | 87 | 0.0 | 1.6 | 0.00 | 0.03 | 0.03 | 99 | 1017.5 |
| 20260902094455 | 16 | 92 | 0.0 | 1.6 | 0.00 | 0.03 | 0.03 | 99 | 1017.6 |
| 20260902093950 | 16 | 92 | 1.6 | 1.6 | 0.00 | 0.03 | 0.03 | 99 | 1017.8 |
| 20260902093445 | 16 | 92 | 0.0 | 0.0 | 0.00 | 0.03 | 0.03 | 99 | 1017.8 |
| 20260902092944 | 16 | 115 | 0.0 | 1.6 | 0.00 | 0.03 | 0.03 | 99 | 1017.6 |
| 20260902092440 | 16 | 185 | 1.6 | 3.2 | 0.00 | 0.03 | 0.03 | 99 | 1017.7 |
| 20260902091939 | 16 | 126 | 0.0 | 0.0 | 0.00 | 0.03 | 0.03 | 99 | 1017.5 |
| 20260902091435 | 16 | 125 | 0.0 | 0.0 | 0.00 | 0.03 | 0.03 | 99 | 1017.5 |
| 20260902090931 | 16 | 146 | 1.6 | 1.6 | 0.00 | 0.03 | 0.03 | 99 | 1017.2 |
| 20260902090432 | 17 | 60 | 1.6 | 1.6 | 0.00 | 0.03 | 0.03 | 99 | 1017.3 |
| 20260902085930 | 17 | 95 | 0.0 | 1.6 | 0.00 | 0.03 | 0.03 | 99 | 1017.2 |
| 20260902085425 | 17 | 96 | 0.0 | 0.0 | 0.00 | 0.03 | 0.03 | 99 | 1017.1 |
| 20260902084921 | 17 | 96 | 0.0 | 1.6 | 0.00 | 0.03 | 0.03 | 99 | 1017.0 |
| 20260902084417 | 17 | 96 | 1.6 | 1.6 | 0.00 | 0.03 | 0.03 | 99 | 1016.9 |
| 20260902083912 | 17 | 90 | 1.6 | 1.6 | 0.00 | 0.03 | 0.03 | 99 | 1017.3 |
| 20260902083407 | 17 | 100 | 0.0 | 1.6 | 0.00 | 0.03 | 0.03 | 99 | 1017.3 |
| 20260902082902 | 17 | 94 | 0.0 | 0.0 | 0.00 | 0.03 | 0.03 | 99 | 1017.4 |
| 20260902082358 | 17 | 55 | 0.0 | 1.6 | 0.00 | 0.03 | 0.03 | 99 | 1017.3 |
| 20260902081854 | 17 | 72 | 0.0 | 0.0 | 0.00 | 0.03 | 0.03 | 99 | 1017.1 |
| 20260902081350 | 17 | 72 | 0.0 | 0.0 | 0.00 | 0.03 | 0.03 | 99 | 1017.1 |
| 20260902080845 | 17 | 72 | 0.0 | 0.0 | 0.00 | 0.03 | 0.03 | 99 | 1016.8 |
| 20260902080341 | 17 | 72 | 0.0 | 0.0 | 0.00 | 0.03 | 0.03 | 99 | 1016.7 |
| 20260902075840 | 17 | 73 | 0.0 | 0.0 | 0.00 | 0.03 | 0.03 | 99 | 1017.0 |
| 20260902075337 | 17 | 73 | 0.0 | 0.0 | 0.00 | 0.03 | 0.03 | 99 | 1016.9 |
| 20260902074832 | 17 | 73 | 0.0 | 0.0 | 0.00 | 0.03 | 0.03 | 99 | 1016.9 |
| 20260902074328 | 17 | 72 | 0.0 | 1.6 | 0.00 | 0.03 | 0.03 | 99 | 1017.1 |
| 20260902073828 | 17 | 58 | 0.0 | 1.6 | 0.00 | 0.03 | 0.03 | 99 | 1016.8 |
| 20260902073324 | 17 | 79 | 0.0 | 0.0 | 0.18 | 0.03 | 0.03 | 99 | 1016.8 |
| 20260902072820 | 17 | 79 | 0.0 | 1.6 | 0.18 | 0.03 | 0.03 | 99 | 1016.8 |
| 20260902072315 | 17 | 80 | 0.0 | 0.0 | 0.00 | 0.00 | 0.00 | 99 | 1016.8 |
| 20260902071812 | 17 | 80 | 0.0 | 0.0 | 0.00 | 0.00 | 0.00 | 99 | 1016.7 |
| 20260902071306 | 17 | 80 | 0.0 | 1.6 | 0.00 | 0.00 | 0.00 | 99 | 1016.9 |
| 20260902070803 | 17 | 80 | 0.0 | 1.6 | 0.00 | 0.00 | 0.00 | 99 | 1016.7 |
| 20260902070302 | 17 | 80 | 0.0 | 0.0 | 0.00 | 0.00 | 0.00 | 99 | 1016.9 |
| 20260902065800 | 17 | 80 | 1.6 | 1.6 | 0.00 | 0.00 | 0.00 | 99 | 1016.7 |
| 20260902065251 | 17 | 80 | 1.6 | 1.6 | 0.00 | 0.00 | 0.00 | 99 | 1016.6 |
| 20260902064747 | 17 | 78 | 0.0 | 1.6 | 0.00 | 0.00 | 0.00 | 99 | 1016.8 |
| 20260902064242 | 17 | 80 | 0.0 | 1.6 | 0.00 | 0.00 | 0.00 | 99 | 1016.6 |
| 20260902063737 | 17 | 70 | 1.6 | 1.6 | 0.00 | 0.00 | 0.00 | 99 | 1016.7 |
| 20260902063237 | 17 | 86 | 1.6 | 1.6 | 0.00 | 0.00 | 0.00 | 99 | 1016.6 |
| 20260902062732 | 17 | 86 | 3.2 | 3.2 | 0.00 | 0.00 | 0.00 | 99 | 1016.6 |
| 20260902062227 | 17 | 79 | 1.6 | 1.6 | 0.00 | 0.00 | 0.00 | 99 | 1016.8 |
| 20260902061725 | 18 | 80 | 1.6 | 1.6 | 0.00 | 0.00 | 0.00 | 99 | 1016.9 |
| 20260902061221 | 18 | 70 | 1.6 | 1.6 | 0.00 | 0.00 | 0.00 | 99 | 1016.7 |
| 20260902060718 | 18 | 131 | 0.0 | 0.0 | 0.00 | 0.00 | 0.00 | 99 | 1016.8 |
| 20260902060214 | 18 | 25 | 0.0 | 0.0 | 0.00 | 0.00 | 0.00 | 99 | 1016.8 |
| 20260902055709 | 18 | 25 | 0.0 | 0.0 | 0.00 | 0.00 | 0.00 | 99 | 1016.8 |
| 20260902055205 | 18 | 25 | 0.0 | 0.0 | 0.00 | 0.00 | 0.00 | 99 | 1016.7 |
| 20260902054700 | 18 | 25 | 0.0 | 0.0 | 0.00 | 0.00 | 0.00 | 99 | 1017.0 |
| 20260902054155 | 18 | 58 | 0.0 | 0.0 | 0.00 | 0.00 | 0.00 | 99 | 1016.9 |
| 20260902053650 | 18 | 57 | 0.0 | 1.6 | 0.00 | 0.00 | 0.00 | 99 | 1016.8 |
| 20260902053145 | 18 | 57 | 0.0 | 0.0 | 0.00 | 0.00 | 0.00 | 99 | 1016.8 |
| 20260902052644 | 18 | 54 | 0.0 | 0.0 | 0.00 | 0.00 | 0.00 | 99 | 1016.8 |
| 20260902052140 | 18 | 46 | 0.0 | 1.6 | 0.00 | 0.00 | 0.00 | 99 | 1016.8 |
| 20260902051639 | 18 | 67 | 1.6 | 1.6 | 0.00 | 0.00 | 0.00 | 99 | 1016.6 |
| 20260902051133 | 18 | 71 | 0.0 | 0.0 | 0.00 | 0.00 | 0.00 | 99 | 1016.8 |
| 20260902050628 | 18 | 67 | 0.0 | 0.0 | 0.00 | 0.00 | 0.00 | 99 | 1016.7 |
| 20260902050123 | 18 | 260 | 3.2 | 6.4 | 0.00 | 0.00 | 0.00 | 99 | 1016.6 |
| 20260902045618 | 18 | 147 | 0.0 | 1.6 | 0.00 | 0.00 | 0.00 | 99 | 1016.6 |
| 20260902045115 | 19 | 149 | 0.0 | 1.6 | 0.00 | 0.00 | 0.00 | 99 | 1016.5 |
| 20260902044614 | 19 | 131 | 1.6 | 1.6 | 0.00 | 0.00 | 0.00 | 99 | 1016.7 |
| 20260902044110 | 19 | 124 | 0.0 | 1.6 | 0.00 | 0.00 | 0.00 | 99 | 1016.7 |
| 20260902043606 | 19 | 124 | 3.2 | 3.2 | 0.00 | 0.00 | 0.00 | 99 | 1016.5 |
| 20260902043100 | 19 | 41 | 1.6 | 1.6 | 0.00 | 0.00 | 0.00 | 99 | 1016.4 |
| 20260902042559 | 19 | 41 | 0.0 | 0.0 | 0.00 | 0.00 | 0.00 | 99 | 1016.7 |
| 20260902042055 | 19 | 123 | 1.6 | 1.6 | 0.00 | 0.00 | 0.00 | 99 | 1016.5 |
| 20260902041555 | 19 | 123 | 1.6 | 3.2 | 0.00 | 0.00 | 0.00 | 99 | 1016.6 |
| 20260902041049 | 20 | 123 | 1.6 | 1.6 | 0.00 | 0.00 | 0.00 | 99 | 1016.3 |
| 20260902040544 | 20 | 132 | 0.0 | 1.6 | 0.00 | 0.00 | 0.00 | 99 | 1016.3 |
| 20260902040039 | 20 | 122 | 0.0 | 0.0 | 0.00 | 1.09 | 1.09 | 99 | 1016.1 |
| 20260902035537 | 20 | 126 | 1.6 | 1.6 | 0.00 | 1.09 | 1.09 | 99 | 1016.2 |
| 20260902035033 | 20 | 126 | 0.0 | 0.0 | 0.00 | 1.09 | 1.09 | 99 | 1016.2 |
| 20260902034532 | 20 | 134 | 0.0 | 0.0 | 0.00 | 1.09 | 1.09 | 99 | 1016.1 |
| 20260902034031 | 20 | 134 | 1.6 | 1.6 | 0.00 | 1.09 | 1.09 | 99 | 1015.6 |
| 20260902033531 | 20 | 143 | 0.0 | 1.6 | 0.00 | 1.09 | 1.09 | 99 | 1016.2 |
| 20260902033026 | 20 | 125 | 1.6 | 1.6 | 0.00 | 1.09 | 1.09 | 99 | 1015.8 |
| 20260902032524 | 20 | 152 | 0.0 | 1.6 | 0.00 | 1.09 | 1.09 | 99 | 1015.7 |
| 20260902032020 | 20 | 110 | 0.0 | 0.0 | 0.00 | 1.09 | 1.09 | 99 | 1015.5 |
| 20260902031514 | 20 | 121 | 0.0 | 1.6 | 0.00 | 1.09 | 1.09 | 99 | 1015.6 |
| 20260902031010 | 20 | 122 | 0.0 | 1.6 | 0.00 | 1.09 | 1.09 | 99 | 1015.4 |
| 20260902030505 | 20 | 133 | 0.0 | 0.0 | 0.00 | 1.09 | 1.09 | 99 | 1015.4 |
| 20260902030005 | 20 | 133 | 0.0 | 0.0 | 0.00 | 1.09 | 1.09 | 99 | 1015.3 |
| 20260902025500 | 20 | 134 | 0.0 | 0.0 | 0.00 | 1.09 | 1.09 | 99 | 1015.2 |
| 20260902024954 | 20 | 133 | 0.0 | 0.0 | 0.00 | 1.09 | 1.09 | 99 | 1015.2 |
| 20260902024450 | 20 | 137 | 0.0 | 0.0 | 0.00 | 1.09 | 1.09 | 99 | 1015.1 |
| 20260902023944 | 20 | 138 | 1.6 | 1.6 | 0.00 | 1.09 | 1.09 | 99 | 1015.0 |
| 20260902023440 | 20 | 112 | 0.0 | 1.6 | 0.00 | 1.09 | 1.09 | 99 | 1015.1 |
| 20260902022939 | 20 | 112 | 0.0 | 0.0 | 0.00 | 1.09 | 1.09 | 99 | 1015.0 |
| 20260902022434 | 20 | 112 | 0.0 | 1.6 | 0.00 | 1.09 | 1.09 | 99 | 1014.8 |
| 20260902021930 | 21 | 109 | 1.6 | 1.6 | 0.00 | 1.09 | 1.09 | 99 | 1014.6 |
| 20260902021425 | 21 | 119 | 1.6 | 1.6 | 0.00 | 1.09 | 1.09 | 99 | 1014.7 |
| 20260902020920 | 21 | 119 | 1.6 | 1.6 | 0.00 | 1.09 | 1.09 | 99 | 1014.7 |
| 20260902020417 | 21 | 119 | 1.6 | 1.6 | 0.00 | 1.09 | 1.09 | 99 | 1014.6 |
| 20260902015912 | 21 | 119 | 0.0 | 0.0 | 0.00 | 1.09 | 1.09 | 99 | 1014.6 |
| 20260902015408 | 21 | 119 | 0.0 | 0.0 | 0.00 | 1.09 | 1.09 | 99 | 1014.8 |
| 20260902014903 | 21 | 119 | 0.0 | 0.0 | 0.00 | 1.09 | 1.09 | 99 | 1014.8 |
| 20260902014359 | 21 | 119 | 1.6 | 1.6 | 0.00 | 1.09 | 1.09 | 99 | 1014.9 |
| 20260902013858 | 21 | 124 | 0.0 | 0.0 | 0.00 | 1.09 | 1.09 | 99 | 1014.8 |
| 20260902013354 | 21 | 124 | 1.6 | 1.6 | 0.00 | 1.09 | 1.09 | 99 | 1014.9 |
| 20260902012850 | 21 | 124 | 0.0 | 0.0 | 0.00 | 1.09 | 1.09 | 99 | 1014.8 |
| 20260902012345 | 21 | 124 | 0.0 | 1.6 | 0.00 | 1.09 | 1.09 | 99 | 1015.1 |
| 20260902011841 | 21 | 124 | 1.6 | 1.6 | 0.00 | 1.09 | 1.09 | 99 | 1015.1 |
| 20260902011335 | 21 | 124 | 0.0 | 1.6 | 0.00 | 1.09 | 1.09 | 99 | 1014.6 |
| 20260902010834 | 21 | 136 | 1.6 | 1.6 | 0.00 | 1.09 | 1.09 | 99 | 1014.9 |
| 20260902010329 | 21 | 153 | 0.0 | 1.6 | 0.00 | 1.09 | 1.09 | 99 | 1014.8 |
| 20260902005828 | 21 | 129 | 0.0 | 0.0 | 0.00 | 1.09 | 1.09 | 99 | 1014.4 |
| 20260902005323 | 21 | 123 | 0.0 | 1.6 | 0.00 | 1.09 | 1.09 | 99 | 1014.3 |
| 20260902004819 | 21 | 123 | 1.6 | 1.6 | 0.00 | 1.09 | 1.09 | 99 | 1014.3 |
| 20260902004314 | 21 | 121 | 1.6 | 3.2 | 0.00 | 1.09 | 1.09 | 99 | 1014.2 |
| 20260902003814 | 21 | 121 | 0.0 | 1.6 | 0.00 | 1.09 | 1.09 | 99 | 1014.3 |
| 20260902003309 | 21 | 115 | 1.6 | 3.2 | 0.00 | 1.09 | 1.09 | 99 | 1014.1 |
| 20260902002805 | 21 | 118 | 0.0 | 1.6 | 0.00 | 1.09 | 1.09 | 99 | 1013.9 |
| 20260902002259 | 21 | 118 | 0.0 | 0.0 | 0.00 | 1.09 | 1.09 | 99 | 1013.6 |
| 20260902001754 | 21 | 118 | 0.0 | 0.0 | 0.00 | 1.09 | 1.09 | 99 | 1013.7 |
| 20260902001249 | 21 | 118 | 1.6 | 1.6 | 0.00 | 1.09 | 1.09 | 99 | 1013.7 |
| 20260902000743 | 21 | 118 | 1.6 | 1.6 | 0.00 | 1.09 | 1.09 | 99 | 1013.6 |
| 20260902000238 | 21 | 119 | 0.0 | 0.0 | 0.00 | 1.09 | 1.09 | 99 | 1013.4 |
| 20260901235733 | 22 | 118 | 0.0 | 0.0 | 0.00 | 1.09 | 1.09 | 99 | 1013.3 |
| 20260901235228 | 22 | 118 | 0.0 | 1.6 | 0.00 | 1.09 | 1.09 | 99 | 1013.4 |
| 20260901234728 | 22 | 118 | 0.0 | 1.6 | 0.00 | 1.09 | 1.09 | 99 | 1013.3 |
| 20260901234228 | 22 | 118 | 0.0 | 0.0 | 0.00 | 1.09 | 1.09 | 99 | 1013.1 |
| 20260901233722 | 22 | 118 | 0.0 | 0.0 | 0.00 | 1.09 | 1.09 | 99 | 1013.3 |
| 20260901233218 | 22 | 118 | 0.0 | 0.0 | 0.00 | 1.09 | 1.09 | 99 | 1013.0 |
| 20260901232713 | 22 | 118 | 0.0 | 0.0 | 0.00 | 1.09 | 1.09 | 99 | 1013.2 |
| 20260901232208 | 23 | 118 | 0.0 | 0.0 | 0.00 | 1.09 | 1.09 | 98 | 1013.3 |
| 20260901231705 | 23 | 118 | 0.0 | 0.0 | 0.00 | 1.09 | 1.09 | 98 | 1013.4 |
| 20260901231201 | 23 | 118 | 0.0 | 1.6 | 0.00 | 1.09 | 1.09 | 99 | 1013.6 |
| 20260901230656 | 23 | 118 | 0.0 | 0.0 | 0.00 | 1.09 | 1.09 | 99 | 1013.6 |
| 20260901230155 | 23 | 118 | 0.0 | 0.0 | 0.00 | 1.09 | 1.09 | 99 | 1013.8 |
| 20260901225651 | 23 | 118 | 0.0 | 0.0 | 0.00 | 1.09 | 1.09 | 99 | 1014.1 |
| 20260901225145 | 23 | 118 | 0.0 | 0.0 | 0.00 | 1.09 | 1.09 | 99 | 1013.8 |
| 20260901224642 | 23 | 118 | 0.0 | 0.0 | 0.00 | 1.09 | 1.09 | 98 | 1014.0 |
| 20260901224138 | 23 | 118 | 0.0 | 0.0 | 0.00 | 1.09 | 1.09 | 97 | 1013.9 |
| 20260901223633 | 23 | 118 | 0.0 | 0.0 | 0.00 | 1.09 | 1.09 | 97 | 1013.8 |
| 20260901223128 | 24 | 118 | 0.0 | 0.0 | 0.00 | 1.09 | 1.09 | 95 | 1013.4 |
| 20260901222624 | 24 | 118 | 0.0 | 0.0 | 0.00 | 1.09 | 1.09 | 94 | 1013.3 |
| 20260901222120 | 25 | 118 | 0.0 | 0.0 | 0.00 | 1.09 | 1.09 | 94 | 1013.1 |
| 20260901221615 | 25 | 118 | 0.0 | 0.0 | 0.00 | 1.09 | 1.09 | 93 | 1013.0 |
| 20260901221111 | 25 | 118 | 0.0 | 0.0 | 0.00 | 1.09 | 1.09 | 92 | 1012.8 |
| 20260901220610 | 25 | 118 | 0.0 | 1.6 | 0.00 | 1.09 | 1.09 | 92 | 1012.8 |
| 20260901220109 | 25 | 118 | 0.0 | 0.0 | 0.00 | 1.09 | 1.09 | 91 | 1013.0 |
| 20260901215608 | 25 | 171 | 0.0 | 0.0 | 0.00 | 1.09 | 1.09 | 92 | 1012.8 |
| 20260901215102 | 26 | 172 | 0.0 | 0.0 | 0.00 | 1.09 | 1.09 | 90 | 1012.8 |
| 20260901214601 | 26 | 173 | 1.6 | 3.2 | 0.00 | 1.09 | 1.09 | 88 | 1013.2 |
| 20260901214101 | 26 | 148 | 0.0 | 0.0 | 0.00 | 1.09 | 1.09 | 88 | 1013.1 |
| 20260901213555 | 26 | 159 | 1.6 | 1.6 | 0.00 | 1.09 | 1.09 | 89 | 1012.8 |
| 20260901213050 | 26 | 87 | 0.0 | 0.0 | 0.00 | 1.09 | 1.09 | 89 | 1013.1 |
| 20260901212549 | 26 | 85 | 0.0 | 0.0 | 0.00 | 1.09 | 1.09 | 91 | 1013.2 |
| 20260901212046 | 26 | 123 | 0.0 | 0.0 | 0.00 | 1.09 | 1.09 | 91 | 1013.3 |
| 20260901211541 | 26 | 115 | 1.6 | 1.6 | 0.00 | 1.09 | 1.09 | 89 | 1013.1 |
| 20260901211038 | 26 | 116 | 1.6 | 1.6 | 0.00 | 1.09 | 1.09 | 91 | 1012.7 |
| 20260901210532 | 26 | 116 | 0.0 | 0.0 | 0.00 | 1.09 | 1.09 | 91 | 1012.8 |
| 20260901210029 | 25 | 119 | 0.0 | 0.0 | 0.00 | 1.09 | 1.09 | 92 | 1013.2 |
| 20260901205523 | 25 | 119 | 0.0 | 1.6 | 0.00 | 1.09 | 1.09 | 93 | 1012.8 |
| 20260901205018 | 25 | 119 | 0.0 | 0.0 | 0.00 | 1.09 | 1.09 | 92 | 1012.8 |
| 20260901204515 | 26 | 122 | 0.0 | 0.0 | 0.00 | 1.09 | 1.09 | 93 | 1012.7 |
| 20260901204009 | 26 | 121 | 1.6 | 1.6 | 0.00 | 1.09 | 1.09 | 89 | 1012.7 |
| 20260901203503 | 27 | 121 | 0.0 | 0.0 | 0.00 | 1.09 | 1.09 | 87 | 1012.8 |
| 20260901202958 | 27 | 105 | 0.0 | 0.0 | 0.00 | 1.09 | 1.09 | 86 | 1012.7 |
| 20260901202453 | 27 | 98 | 1.6 | 1.6 | 0.00 | 1.09 | 1.09 | 87 | 1013.0 |
| 20260901201943 | 26 | 173 | 1.6 | 1.6 | 0.00 | 1.09 | 1.09 | 89 | 1012.5 |
| 20260901201438 | 26 | 173 | 0.0 | 1.6 | 0.00 | 1.09 | 1.09 | 91 | 1012.7 |
| 20260901200932 | 25 | 173 | 0.0 | 0.0 | 0.00 | 1.09 | 1.09 | 92 | 1012.8 |
| 20260901200426 | 26 | 173 | 0.0 | 0.0 | 0.00 | 1.09 | 1.09 | 93 | 1013.1 |
| 20260901195920 | 26 | 173 | 0.0 | 0.0 | 0.00 | 1.09 | 1.09 | 93 | 1013.0 |
| 20260901195419 | 26 | 173 | 0.0 | 0.0 | 0.00 | 1.09 | 1.09 | 90 | 1012.8 |
| 20260901194914 | 26 | 173 | 0.0 | 0.0 | 0.00 | 1.09 | 1.09 | 91 | 1013.0 |
| 20260901194408 | 26 | 173 | 0.0 | 0.0 | 0.00 | 1.09 | 1.09 | 92 | 1013.0 |
| 20260901193904 | 26 | 173 | 0.0 | 0.0 | 0.00 | 1.09 | 1.09 | 93 | 1012.8 |
| 20260901193403 | 26 | 173 | 0.0 | 0.0 | 0.00 | 1.09 | 1.09 | 92 | 1013.1 |
| 20260901192858 | 26 | 173 | 0.0 | 0.0 | 0.00 | 1.09 | 1.09 | 91 | 1012.8 |
| 20260901192354 | 26 | 173 | 0.0 | 0.0 | 0.00 | 1.09 | 1.09 | 91 | 1012.8 |
| 20260901191850 | 26 | 173 | 0.0 | 0.0 | 0.00 | 1.09 | 1.09 | 91 | 1013.1 |
| 20260901191345 | 25 | 173 | 0.0 | 0.0 | 0.00 | 1.09 | 1.09 | 94 | 1013.1 |
| 20260901190841 | 25 | 173 | 0.0 | 0.0 | 0.00 | 1.09 | 1.09 | 95 | 1013.0 |
| 20260901190340 | 25 | 173 | 0.0 | 1.6 | 0.00 | 1.09 | 1.09 | 93 | 1013.1 |
| 20260901185839 | 25 | 173 | 0.0 | 1.6 | 0.00 | 1.09 | 1.09 | 93 | 1012.8 |
| 20260901185333 | 25 | 173 | 0.0 | 0.0 | 0.00 | 1.09 | 1.09 | 94 | 1012.8 |
| 20260901184828 | 26 | 104 | 3.2 | 3.2 | 0.00 | 1.09 | 1.09 | 92 | 1013.0 |
| 20260901184324 | 26 | 197 | 1.6 | 1.6 | 0.00 | 1.09 | 1.09 | 92 | 1013.1 |
| 20260901183819 | 26 | 176 | 3.2 | 3.2 | 0.00 | 1.09 | 1.09 | 93 | 1013.2 |
| 20260901183318 | 26 | 171 | 3.2 | 3.2 | 0.00 | 1.09 | 1.09 | 92 | 1013.2 |
| 20260901182815 | 25 | 167 | 0.0 | 1.6 | 0.00 | 1.09 | 1.09 | 95 | 1013.2 |
| 20260901182314 | 25 | 173 | 9.7 | 12.9 | 0.00 | 1.09 | 1.09 | 93 | 1013.2 |
| 20260901181809 | 25 | 182 | 0.0 | 1.6 | 0.00 | 1.09 | 1.09 | 95 | 1013.1 |
| 20260901181308 | 26 | 195 | 1.6 | 1.6 | 0.00 | 1.09 | 1.09 | 93 | 1013.4 |
| 20260901180802 | 26 | 177 | 3.2 | 3.2 | 0.00 | 1.09 | 1.09 | 92 | 1013.4 |
| 20260901180302 | 26 | 184 | 0.0 | 1.6 | 0.00 | 1.09 | 1.09 | 92 | 1013.0 |
| 20260901175800 | 25 | 184 | 1.6 | 1.6 | 0.00 | 1.09 | 1.09 | 91 | 1012.8 |
| 20260901175256 | 25 | 190 | 1.6 | 1.6 | 0.00 | 1.09 | 1.09 | 93 | 1012.8 |
| 20260901174750 | 25 | 199 | 3.2 | 4.8 | 0.00 | 1.09 | 1.09 | 93 | 1013.0 |
| 20260901174247 | 25 | 182 | 4.8 | 4.8 | 0.00 | 1.09 | 1.09 | 94 | 1013.0 |
| 20260901173742 | 24 | 173 | 1.6 | 1.6 | 0.00 | 1.09 | 1.09 | 96 | 1013.1 |
| 20260901173237 | 23 | 195 | 3.2 | 3.2 | 0.00 | 1.09 | 1.09 | 98 | 1013.1 |
| 20260901172733 | 23 | 188 | 1.6 | 1.6 | 0.00 | 1.09 | 1.09 | 99 | 1012.7 |
| 20260901172232 | 22 | 187 | 1.6 | 1.6 | 0.00 | 1.09 | 1.09 | 99 | 1013.2 |
| 20260901171730 | 22 | 187 | 1.6 | 3.2 | 0.00 | 1.09 | 1.09 | 99 | 1013.2 |
| 20260901171230 | 22 | 178 | 0.0 | 0.0 | 0.00 | 1.09 | 1.09 | 99 | 1013.3 |
| 20260901170729 | 22 | 176 | 1.6 | 1.6 | 0.00 | 1.09 | 1.09 | 99 | 1013.2 |
| 20260901170224 | 22 | 182 | 1.6 | 1.6 | 0.00 | 1.09 | 1.09 | 99 | 1013.5 |
| 20260901165722 | 22 | 168 | 0.0 | 0.0 | 0.00 | 1.09 | 1.09 | 99 | 1013.3 |
| 20260901165217 | 21 | 203 | 0.0 | 1.6 | 0.00 | 1.09 | 1.09 | 99 | 1013.4 |
| 20260901164714 | 21 | 202 | 3.2 | 3.2 | 0.00 | 1.09 | 1.09 | 99 | 1013.4 |
| 20260901164209 | 21 | 202 | 1.6 | 1.6 | 0.00 | 1.09 | 1.09 | 99 | 1013.5 |
| 20260901163705 | 21 | 202 | 0.0 | 0.0 | 0.00 | 1.09 | 1.09 | 99 | 1013.6 |
| 20260901163204 | 21 | 202 | 0.0 | 0.0 | 0.00 | 1.09 | 1.09 | 99 | 1013.5 |
| 20260901162659 | 21 | 202 | 0.0 | 0.0 | 0.00 | 1.09 | 1.09 | 99 | 1013.9 |
| 20260901162158 | 21 | 201 | 1.6 | 1.6 | 0.00 | 1.09 | 1.09 | 99 | 1013.8 |
| 20260901161657 | 20 | 201 | 0.0 | 0.0 | 0.00 | 1.09 | 1.09 | 99 | 1014.0 |
| 20260901161157 | 21 | 162 | 1.6 | 1.6 | 0.00 | 1.09 | 1.09 | 99 | 1013.9 |
| 20260901160654 | 20 | 162 | 0.0 | 0.0 | 0.13 | 1.09 | 1.09 | 99 | 1014.0 |
| 20260901160148 | 20 | 162 | 1.6 | 1.6 | 0.30 | 1.09 | 1.09 | 99 | 1013.7 |
| 20260901155648 | 20 | 162 | 0.0 | 0.0 | 0.48 | 1.07 | 1.07 | 99 | 1014.2 |
| 20260901155143 | 20 | 162 | 0.0 | 0.0 | 0.61 | 1.04 | 1.04 | 99 | 1014.7 |
| 20260901154637 | 20 | 195 | 3.2 | 4.8 | 0.48 | 0.99 | 0.99 | 99 | 1014.3 |
| 20260901154132 | 20 | 163 | 0.0 | 1.6 | 0.18 | 0.94 | 0.94 | 99 | 1014.6 |
| 20260901153622 | 20 | 147 | 0.0 | 0.0 | 0.00 | 0.91 | 0.91 | 99 | 1013.9 |
| 20260901153121 | 20 | 147 | 0.0 | 0.0 | 0.00 | 0.91 | 0.91 | 99 | 1013.8 |
| 20260901152616 | 20 | 147 | 0.0 | 0.0 | 0.00 | 0.91 | 0.91 | 99 | 1013.9 |
| 20260901152114 | 20 | 147 | 0.0 | 1.6 | 0.00 | 0.91 | 0.91 | 99 | 1013.9 |
| 20260901151611 | 20 | 147 | 0.0 | 0.0 | 0.00 | 0.91 | 0.91 | 99 | 1014.0 |
| 20260901151110 | 20 | 147 | 0.0 | 0.0 | 0.00 | 0.91 | 0.91 | 99 | 1014.0 |
| 20260901150603 | 20 | 147 | 0.0 | 0.0 | 0.00 | 0.91 | 0.91 | 99 | 1013.9 |
| 20260901145601 | 20 | 147 | 0.0 | 0.0 | 0.00 | 0.91 | 0.91 | 99 | 1014.1 |
| 20260901145100 | 20 | 147 | 0.0 | 1.6 | 0.00 | 0.91 | 0.91 | 99 | 1014.0 |
| 20260901144556 | 20 | 147 | 0.0 | 0.0 | 0.13 | 0.91 | 0.91 | 99 | 1014.0 |
| 20260901144050 | 19 | 147 | 0.0 | 0.0 | 0.61 | 0.91 | 0.91 | 99 | 1014.1 |
| 20260901143546 | 19 | 146 | 0.0 | 0.0 | 1.55 | 0.89 | 0.89 | 99 | 1014.4 |
| 20260901143038 | 19 | 185 | 1.6 | 1.6 | 1.68 | 0.81 | 0.81 | 99 | 1014.9 |
| 20260901142538 | 19 | 188 | 1.6 | 1.6 | 1.19 | 0.64 | 0.64 | 99 | 1015.0 |
| 20260901142033 | 19 | 177 | 0.0 | 0.0 | 0.89 | 0.53 | 0.53 | 99 | 1015.2 |
| 20260901141533 | 19 | 177 | 0.0 | 1.6 | 0.61 | 0.43 | 0.43 | 99 | 1015.0 |
| 20260901141027 | 19 | 179 | 0.0 | 1.6 | 0.48 | 0.38 | 0.38 | 99 | 1014.7 |
| 20260901140526 | 19 | 202 | 1.6 | 1.6 | 0.18 | 0.33 | 0.33 | 99 | 1014.6 |
| 20260901140021 | 19 | 142 | 0.0 | 0.0 | 0.13 | 0.30 | 0.30 | 99 | 1014.8 |
| 20260901135520 | 19 | 141 | 1.6 | 1.6 | 0.13 | 0.30 | 0.30 | 99 | 1014.7 |
| 20260901135016 | 19 | 181 | 0.0 | 0.0 | 0.30 | 0.28 | 0.28 | 99 | 1014.7 |
| 20260901134511 | 19 | 202 | 1.6 | 1.6 | 0.89 | 0.28 | 0.28 | 99 | 1014.6 |
| 20260901134006 | 20 | 177 | 0.0 | 0.0 | 0.61 | 0.23 | 0.23 | 99 | 1014.3 |
| 20260901133504 | 19 | 196 | 1.6 | 1.6 | 0.30 | 0.13 | 0.13 | 99 | 1014.7 |
| 20260901132958 | 20 | 155 | 0.0 | 0.0 | 0.30 | 0.13 | 0.13 | 99 | 1014.5 |
| 20260901132457 | 20 | 155 | 0.0 | 0.0 | 0.18 | 0.08 | 0.08 | 99 | 1014.3 |
| 20260901131956 | 20 | 155 | 0.0 | 0.0 | 0.18 | 0.08 | 0.08 | 99 | 1014.4 |
| 20260901131451 | 20 | 155 | 0.0 | 0.0 | 0.00 | 0.05 | 0.05 | 99 | 1014.2 |
| 20260901130947 | 20 | 155 | 0.0 | 0.0 | 0.00 | 0.05 | 0.05 | 99 | 1014.5 |
| 20260901130441 | 20 | 155 | 0.0 | 0.0 | 0.00 | 0.05 | 0.05 | 99 | 1014.4 |
| 20260901125938 | 20 | 155 | 0.0 | 1.6 | 0.00 | 0.05 | 0.05 | 99 | 1014.5 |
| 20260901125432 | 20 | 155 | 0.0 | 0.0 | 0.00 | 0.05 | 0.05 | 99 | 1014.5 |
| 20260901124927 | 20 | 155 | 0.0 | 0.0 | 0.00 | 0.05 | 0.05 | 99 | 1014.3 |
| 20260901124422 | 20 | 155 | 0.0 | 0.0 | 0.00 | 0.05 | 0.05 | 99 | 1014.3 |
| 20260901123917 | 20 | 155 | 0.0 | 1.6 | 0.00 | 0.05 | 0.05 | 99 | 1014.3 |
| 20260901123412 | 20 | 155 | 1.6 | 1.6 | 0.00 | 0.05 | 0.05 | 99 | 1014.5 |
| 20260901122910 | 20 | 155 | 0.0 | 0.0 | 0.00 | 0.05 | 0.05 | 99 | 1014.5 |
| 20260901122405 | 19 | 155 | 0.0 | 0.0 | 0.00 | 0.05 | 0.05 | 99 | 1014.4 |
| 20260901121904 | 19 | 155 | 0.0 | 0.0 | 0.00 | 0.05 | 0.05 | 99 | 1014.3 |
| 20260901121359 | 19 | 155 | 0.0 | 0.0 | 0.00 | 0.05 | 0.05 | 99 | 1014.4 |
| 20260901120855 | 19 | 155 | 0.0 | 0.0 | 0.00 | 0.05 | 0.05 | 99 | 1014.4 |
| 20260901120349 | 19 | 155 | 0.0 | 0.0 | 0.00 | 0.05 | 0.05 | 99 | 1014.3 |
| 20260901115845 | 19 | 155 | 0.0 | 0.0 | 0.00 | 0.05 | 0.05 | 99 | 1014.3 |
| 20260901115339 | 19 | 155 | 0.0 | 0.0 | 0.00 | 0.05 | 0.05 | 99 | 1014.5 |
| 20260901114837 | 18 | 155 | 0.0 | 1.6 | 0.00 | 0.05 | 0.05 | 99 | 1014.2 |
| 20260901114337 | 18 | 155 | 1.6 | 1.6 | 0.00 | 0.05 | 0.05 | 99 | 1014.2 |
| 20260901113836 | 18 | 155 | 0.0 | 0.0 | 0.00 | 0.05 | 0.05 | 99 | 1014.1 |
| 20260901113335 | 18 | 155 | 0.0 | 0.0 | 0.00 | 0.05 | 0.05 | 99 | 1014.1 |
| 20260901112830 | 18 | 155 | 0.0 | 0.0 | 0.00 | 0.05 | 0.05 | 99 | 1014.2 |
| 20260901112330 | 18 | 155 | 0.0 | 0.0 | 0.00 | 0.05 | 0.05 | 99 | 1014.1 |
| 20260901111825 | 18 | 155 | 0.0 | 0.0 | 0.00 | 0.05 | 0.05 | 99 | 1014.2 |
| 20260901111323 | 18 | 155 | 0.0 | 1.6 | 0.00 | 0.05 | 0.05 | 99 | 1014.2 |
| 20260901110822 | 18 | 154 | 0.0 | 0.0 | 0.00 | 0.05 | 0.05 | 99 | 1014.1 |
| 20260901110318 | 18 | 154 | 0.0 | 0.0 | 0.00 | 0.05 | 0.05 | 99 | 1014.1 |
| 20260901105814 | 18 | 154 | 0.0 | 0.0 | 0.00 | 0.05 | 0.05 | 99 | 1014.2 |
| 20260901105308 | 18 | 154 | 0.0 | 0.0 | 0.00 | 0.05 | 0.05 | 99 | 1014.3 |
| 20260901104804 | 18 | 154 | 0.0 | 0.0 | 0.00 | 0.05 | 0.05 | 99 | 1014.4 |